Weather History for KUKF - April, 2013

Change the Weather History Date:

Friday, April 19, 2013

  Actual Average Record
Temperature  
Mean Temperature 58 °F -  
Max Temperature 66 °F 72 °F 90 °F (1976)
Min Temperature 50 °F 41 °F 25 °F (1983)
Degree Days  
Heating Degree Days 7    
Growing Degree Days 8 (Base 50)    
Moisture  
Dew Point 58 °F    
Average Humidity 86    
Maximum Humidity 100    
Minimum Humidity 58    
Precipitation  
Precipitation 0.60 in - - ()
Sea Level Pressure  
Sea Level Pressure 29.88 in    
Wind  
Wind Speed 10 mph (SW)    
Max Wind Speed 18 mph    
Max Gust Speed 30 mph    
Visibility 9 miles    
Events Rain , Thunderstorm    
Averages and records for this station are not official NWS values.
T = Trace of Precipitation, MM = Missing Value Source: NWS Daily Summary

Daily Weather History Graph

Daily Weather History Graph

Search for Another Location

Airport or City:

Trip Planner

Search our weather history database for the weather conditions in past years. The results will help you decide how hot, cold, wet, or windy it might be!

Date:

Astronomy

Apr. 19, 2013 Rise Set
Actual Time 6:45 AM EDT 8:01 PM EDT
Civil Twilight 6:18 AM EDT 8:28 PM EDT
Nautical Twilight 5:46 AM EDT 9:00 PM EDT
Astronomical Twilight 5:13 AM EDT 9:34 PM EDT
Moon 1:55 PM EDT (4/19) 2:48 AM EDT (4/19)
Length of Visible Light 14h 09m
Length of Day
13h 16m
First Quarter, 61% of the Moon is Illuminated
Apr 19
First Quarter
Apr 25
Full
May 2
Last Quarter
May 9
New
May 18
First Quarter

Hourly Weather History & Observations

Time (EDT) Temp. Dew Point Humidity Pressure Visibility Wind Dir Wind Speed Gust Speed Precip Events Conditions
12:15 AM 66.2 °F 59.0 °F 78% 30.03 in 10.0 mi South 12.7 mph 18.4 mph N/A   Overcast
12:35 AM 66.2 °F 59.0 °F 78% 30.03 in 10.0 mi South 13.8 mph 20.7 mph N/A   Overcast
12:55 AM 64.4 °F 59.0 °F 83% 30.02 in 10.0 mi South 11.5 mph 17.3 mph N/A   Overcast
1:15 AM 64.4 °F 59.0 °F 83% 30.01 in 10.0 mi South 8.1 mph - N/A   Overcast
1:35 AM 64.4 °F 59.0 °F 83% 30.00 in 10.0 mi South 5.8 mph - N/A   Overcast
1:55 AM 64.4 °F 59.0 °F 83% 30.00 in 10.0 mi South 9.2 mph 16.1 mph N/A   Overcast
2:15 AM 64.4 °F 59.0 °F 83% 29.99 in 10.0 mi South 13.8 mph 20.7 mph N/A   Overcast
2:35 AM 64.4 °F 59.0 °F 83% 29.98 in 10.0 mi South 8.1 mph - N/A   Overcast
2:55 AM 64.4 °F 59.0 °F 83% 29.97 in 10.0 mi South 8.1 mph 18.4 mph N/A   Overcast
3:15 AM 64.4 °F 59.0 °F 83% 29.97 in 10.0 mi South 8.1 mph 16.1 mph N/A   Overcast
3:55 AM 64.4 °F 59.0 °F 83% 29.95 in 10.0 mi South 10.4 mph - N/A   Overcast
4:15 AM 64.4 °F 59.0 °F 83% 29.95 in 10.0 mi South 11.5 mph 20.7 mph N/A   Overcast
4:35 AM 64.4 °F 59.0 °F 83% 29.93 in 10.0 mi South 6.9 mph 19.6 mph N/A   Overcast
4:55 AM 64.4 °F 59.0 °F 83% 29.93 in 10.0 mi South 9.2 mph 21.9 mph N/A Rain Light Rain
5:15 AM 62.6 °F 59.0 °F 88% 29.92 in 10.0 mi South 8.1 mph - N/A   Overcast
5:35 AM 62.6 °F 59.0 °F 88% 29.92 in 10.0 mi South 10.4 mph 19.6 mph N/A   Overcast
5:55 AM 62.6 °F 59.0 °F 88% 29.91 in 10.0 mi South 8.1 mph 17.3 mph N/A   Overcast
6:15 AM 62.6 °F 59.0 °F 88% 29.91 in 10.0 mi South 9.2 mph - N/A   Overcast
6:35 AM 62.6 °F 59.0 °F 88% 29.91 in 10.0 mi South 9.2 mph 19.6 mph N/A   Overcast
6:55 AM 64.4 °F 59.0 °F 83% 29.91 in 10.0 mi South 16.1 mph 23.0 mph N/A   Overcast
7:15 AM 64.4 °F 59.0 °F 83% 29.91 in 10.0 mi SSW 10.4 mph 19.6 mph N/A   Overcast
7:35 AM 64.4 °F 59.0 °F 83% 29.91 in 10.0 mi SSW 11.5 mph 21.9 mph N/A   Overcast
7:55 AM 64.4 °F 60.8 °F 88% 29.92 in 10.0 mi SSW 12.7 mph 21.9 mph N/A   Overcast
8:15 AM 64.4 °F 60.8 °F 88% 29.91 in 10.0 mi South 5.8 mph 19.6 mph N/A   Overcast
8:35 AM 64.4 °F 60.8 °F 88% 29.92 in 10.0 mi South 17.3 mph 21.9 mph N/A   Overcast
8:55 AM 64.4 °F 60.8 °F 88% 29.92 in 10.0 mi SSW 10.4 mph 24.2 mph N/A   Overcast
9:15 AM 66.2 °F 60.8 °F 83% 29.91 in 10.0 mi SSW 11.5 mph 18.4 mph N/A   Overcast
9:55 AM 64.4 °F 60.8 °F 88% 29.90 in 10.0 mi South 11.5 mph 19.6 mph N/A   Overcast
10:15 AM 64.4 °F 60.8 °F 88% 29.90 in 10.0 mi South 11.5 mph 17.3 mph N/A   Overcast
10:35 AM 64.4 °F 60.8 °F 88% 29.89 in 10.0 mi SSW 10.4 mph 20.7 mph N/A   Overcast
11:15 AM 64.4 °F 62.6 °F 94% 29.89 in 5.0 mi SSW 12.7 mph 18.4 mph 0.02 in Rain Rain
11:35 AM 64.4 °F 62.6 °F 94% 29.87 in 5.0 mi SSW 5.8 mph - 0.05 in   Drizzle
11:55 AM 64.4 °F 62.6 °F 94% 29.86 in 10.0 mi SSW 11.5 mph 18.4 mph 0.05 in   Overcast
12:15 PM 64.4 °F 62.6 °F 94% 29.85 in 10.0 mi SSW 9.2 mph 18.4 mph N/A Rain Light Rain
12:35 PM 64.4 °F 62.6 °F 94% 29.84 in 10.0 mi South 10.4 mph 19.6 mph 0.01 in Rain Rain
12:55 PM 64.4 °F 62.6 °F 94% 29.83 in 7.0 mi South 8.1 mph - 0.01 in   Drizzle
1:15 PM 64.4 °F 62.6 °F 94% 29.81 in 5.0 mi SSW 5.8 mph - 0.01 in Rain Light Rain
1:35 PM 64.4 °F 62.6 °F 94% 29.81 in 2.5 mi SW 6.9 mph - 0.10 in Rain Heavy Rain
1:55 PM 64.4 °F 64.4 °F 100% 29.80 in 4.0 mi SW 8.1 mph - 0.14 in Rain Light Rain
2:15 PM 64.4 °F 64.4 °F 100% 29.80 in 4.0 mi SW 6.9 mph - 0.04 in Rain Light Rain
2:35 PM 64.4 °F 64.4 °F 100% 29.80 in 5.0 mi SW 9.2 mph - 0.06 in Rain Light Rain
2:55 PM 64.4 °F 62.6 °F 94% 29.82 in 1.8 mi SW 18.4 mph 29.9 mph 0.30 in Rain , Thunderstorm Heavy Thunderstorms and Rain
3:15 PM 64.4 °F 62.6 °F 94% 29.82 in 7.0 mi SW 13.8 mph 26.5 mph 0.02 in Rain Light Rain
3:35 PM 64.4 °F 62.6 °F 94% 29.82 in 10.0 mi SW 9.2 mph 18.4 mph 0.02 in Rain Rain
3:55 PM 64.4 °F 62.6 °F 94% 29.81 in 10.0 mi SW 10.4 mph - 0.03 in Rain Light Rain
4:15 PM 64.4 °F 62.6 °F 94% 29.80 in 7.0 mi SW 18.4 mph 27.6 mph 0.02 in Rain Light Rain
4:35 PM 64.4 °F 62.6 °F 94% 29.80 in 10.0 mi SW 13.8 mph 21.9 mph 0.03 in Rain Light Rain
4:55 PM 64.4 °F 62.6 °F 94% 29.79 in 10.0 mi SW 8.1 mph - 0.04 in Rain Rain
5:15 PM 62.6 °F 62.6 °F 100% 29.80 in 10.0 mi SSW 4.6 mph - N/A   Drizzle
5:35 PM 62.6 °F 62.6 °F 100% 29.79 in 10.0 mi SSW 6.9 mph - 0.02 in Rain Light Rain
5:55 PM 62.6 °F 62.6 °F 100% 29.78 in 10.0 mi SW 5.8 mph - 0.03 in Rain Light Rain
6:15 PM 62.6 °F 62.6 °F 100% 29.78 in 10.0 mi WSW 8.1 mph - N/A   Overcast
6:35 PM 62.6 °F 62.6 °F 100% 29.76 in 10.0 mi SW 3.5 mph - N/A   Overcast
6:55 PM 62.6 °F 62.6 °F 100% 29.77 in 10.0 mi WSW 3.5 mph - N/A   Mostly Cloudy
7:15 PM 62.6 °F 60.8 °F 94% 29.78 in 10.0 mi SW 10.4 mph - N/A   Mostly Cloudy
7:35 PM 60.8 °F 59.0 °F 94% 29.78 in 10.0 mi NW 9.2 mph - N/A   Overcast
7:55 PM 59.0 °F 51.8 °F 77% 29.79 in 10.0 mi WNW 8.1 mph 17.3 mph N/A   Overcast
8:15 PM 55.4 °F 51.8 °F 88% 29.81 in 10.0 mi WNW 9.2 mph - N/A   Overcast
8:35 PM 55.4 °F 48.2 °F 77% 29.83 in 10.0 mi WNW 6.9 mph 18.4 mph N/A   Overcast
8:55 PM 55.4 °F 46.4 °F 72% 29.85 in 10.0 mi NW 5.8 mph - N/A   Overcast
9:15 PM 53.6 °F 46.4 °F 77% 29.87 in 10.0 mi WNW 6.9 mph - N/A   Mostly Cloudy
9:35 PM 53.6 °F 44.6 °F 72% 29.88 in 10.0 mi WNW 4.6 mph - N/A   Scattered Clouds
9:55 PM 53.6 °F 42.8 °F 67% 29.89 in 10.0 mi WNW 6.9 mph - N/A   Clear
10:15 PM 51.8 °F 41.0 °F 67% 29.91 in 10.0 mi NNW 11.5 mph 18.4 mph N/A   Clear
10:35 PM 51.8 °F 37.4 °F 58% 29.92 in 10.0 mi WNW 6.9 mph - N/A   Clear
10:55 PM 50.0 °F 37.4 °F 62% 29.93 in 10.0 mi NW 6.9 mph - N/A   Clear
11:15 PM 50.0 °F 37.4 °F 62% 29.95 in 10.0 mi West 6.9 mph - N/A   Clear
11:35 PM 50.0 °F 37.4 °F 62% 29.96 in 10.0 mi WNW 11.5 mph 18.4 mph N/A   Clear
11:55 PM 50.0 °F 35.6 °F 58% 29.96 in 10.0 mi WNW 10.4 mph 21.9 mph N/A   Clear